Location: D�rnast
(49.6426°N, 11.9755°E)
Time: 13:28:01
(UTC+00:00)

X-37B - Pass Details

Date: 24 January 2021
Orbit: 383 x 391 km, 45.0° (Epoch: 10 February)

Event Time Altitude Azimuth Distance (km) Brightness Sun altitude
Rises 16:49:31 0° 240° (WSW) 2,268 6.5 -9.0°
Reaches altitude 10° 16:51:44 10° 229° (SW) 1,416 4.7 -9.3°
Maximum altitude 16:54:32 28° 167° (SSE) 759 2.1 -9.7°
Enters shadow 16:57:11 11° 107° (ESE) 1,362 2.8 -10.1°
